{"data":{"norad_id":53781,"intl_designator":"2022-111J","name":"STARLINK-4462","alt_names":[],"object_type":"PAYLOAD","status":"ACTIVE","operator":null,"country":"US","launch_date":"2022-09-11","launch_site_code":"AFETR","launch_vehicle":null,"mission":null,"orbit_class":"UNKNOWN","rcs_meters":null,"size_class":null,"mass_kg":null,"dimensions":null,"purposes":["comms"],"wikipedia_slug":null,"has_3d_model":false,"image_url":null,"decayed_at":null,"tle_current":{"epoch":"2026-05-25T02:43:58.813824Z","epoch_age_seconds":68478,"freshness":"FRESH","line1":"1 53781U 22111J   26145.11387516  .00000553  00000+0  52877-4 0  9996","line2":"2 53781  53.2126 291.0358 0002330  79.5380 280.5874 15.08836060205236","mean_motion":15.0883606,"eccentricity":0.000233,"inclination_deg":53.2126,"raan_deg":291.0358,"arg_perigee_deg":79.538,"mean_anomaly_deg":280.5874,"bstar":5.2877e-5,"rev_number":20523,"period_min":95.437803892359,"perigee_km":538.14356305743,"apogee_km":541.36730093074,"semimajor_km":6917.8924319941,"source":"CELESTRAK","updated_at":"2026-05-25T13:38:17.542513Z"}}}